DB0SVX Weather Reports


Display with metric or nautical units.
time (UTC)temp
F
wind
direction
speed
MPH
gust
MPH
rain 1hr
in
rain 24hr
in
rain mn
in
humidity
%
barometer
mb
20260905023605 63 90 0.0 0.0 0.00 0.00 0.00 36 1017.5
20260905022105 63 90 0.0 0.0 0.00 0.00 0.00 38 1017.2
20260905020605 64 90 0.0 0.0 0.00 0.00 0.00 38 1017.4
20260905015105 64 90 0.0 0.0 0.00 0.00 0.00 39 1017.2
20260905013605 65 90 0.0 0.0 0.00 0.00 0.00 40 1017.0
20260905012105 66 90 0.0 0.0 0.00 0.00 0.00 41 1017.2
20260905010605 67 90 0.0 0.0 0.00 0.00 0.00 42 1017.2
20260905005105 68 67 3.0 0.0 0.00 0.00 0.00 42 1017.0
20260905003605 68 292 0.0 0.0 0.00 0.00 0.00 42 1016.9
20260905002105 68 247 6.0 0.0 0.00 0.00 0.00 42 1016.9
20260905000605 67 292 0.0 0.0 0.00 0.00 0.00 43 1016.9
20260904235105 67 0 0.0 0.0 0.00 0.00 0.00 43 1016.7
20260904233605 67 292 0.0 0.0 0.00 0.00 0.00 43 1016.7
20260904232105 67 292 3.0 0.0 0.00 0.00 0.00 43 1016.7
20260904230605 68 45 3.0 0.0 0.00 0.00 0.00 43 1016.5
20260904225105 68 247 0.0 0.0 0.00 0.00 0.00 44 1016.5
20260904223605 68 0 0.0 0.0 0.00 0.00 0.00 44 1016.5
20260904222105 68 0 2.0 0.0 0.00 0.00 0.00 44 1016.5
20260904220605 68 0 0.0 0.0 0.00 0.00 0.00 44 1016.5
20260904215105 68 315 1.0 0.0 0.00 0.00 0.00 45 1016.4
20260904213605 69 315 2.0 0.0 0.00 0.00 0.00 45 1016.2
20260904212105 69 292 0.0 0.0 0.00 0.00 0.00 45 1016.2
20260904210605 69 292 0.0 0.0 0.00 0.00 0.00 44 1016.2
20260904205105 70 292 0.0 0.0 0.00 0.00 0.00 44 1016.2
20260904203605 70 202 0.0 0.0 0.00 0.00 0.00 44 1016.2
20260904202105 70 315 0.0 0.0 0.00 0.00 0.00 44 1016.2
20260904200605 71 292 0.0 0.0 0.00 0.00 0.00 44 1016.2
20260904195105 71 292 0.0 0.0 0.00 0.00 0.00 44 1016.2
20260904193605 71 135 1.0 0.0 0.00 0.00 0.00 44 1016.0
20260904192105 71 270 0.0 0.0 0.00 0.00 0.00 44 1015.9
20260904190605 71 270 7.0 0.0 0.00 0.00 0.00 44 1015.7
20260904185105 73 0 0.0 0.0 0.00 0.00 0.00 44 1015.5
20260904183605 73 337 3.0 0.0 0.00 0.00 0.00 43 1015.4
20260904182105 74 0 0.0 0.0 0.00 0.00 0.00 43 1015.2
20260904180605 75 337 0.0 0.0 0.00 0.00 0.00 42 1015.0
20260904175104 76 0 0.0 0.0 0.00 0.00 0.00 41 1014.7
20260904173605 77 292 0.0 0.0 0.00 0.00 0.00 40 1014.7
20260904172105 79 292 0.0 0.0 0.00 0.00 0.00 38 1014.7
20260904170605 82 270 1.0 0.0 0.00 0.00 0.00 35 1014.9
20260904165104 91 270 0.0 0.0 0.00 0.00 0.00 28 1014.7
20260904163605 96 270 0.0 0.0 0.00 0.00 0.00 26 1015.0
20260904162104 97 337 1.0 0.0 0.00 0.00 0.00 25 1015.0
20260904160604 99 315 0.0 0.0 0.00 0.00 0.00 25 1015.0
20260904155104 97 270 0.0 0.0 0.00 0.00 0.00 25 1015.0
20260904153604 98 270 8.0 0.0 0.00 0.00 0.00 25 1015.0
20260904152104 97 270 5.0 0.0 0.00 0.00 0.00 26 1015.2
20260904150604 96 225 3.0 0.0 0.00 0.00 0.00 26 1015.2
20260904145104 95 337 6.0 0.0 0.00 0.00 0.00 26 1015.4
20260904143604 94 337 0.0 0.0 0.00 0.00 0.00 26 1015.5
20260904142104 96 22 7.0 0.0 0.00 0.00 0.00 26 1015.5
20260904140604 93 22 2.0 0.0 0.00 0.00 0.00 27 1015.7
20260904135104 93 22 7.0 0.0 0.00 0.00 0.00 28 1015.7
20260904133604 91 0 3.0 0.0 0.00 0.00 0.00 27 1016.2
20260904132104 91 315 3.0 0.0 0.00 0.00 0.00 28 1015.7
20260904130604 91 45 4.0 0.0 0.00 0.00 0.00 28 1016.0
20260904125104 91 22 3.0 0.0 0.00 0.00 0.00 28 1016.0
20260904123604 91 22 3.0 0.0 0.00 0.00 0.00 30 1016.2
20260904122104 91 270 2.0 0.0 0.00 0.00 0.00 28 1016.5
20260904120604 93 292 7.0 0.0 0.00 0.00 0.00 28 1016.9
20260904115104 93 292 1.0 0.0 0.00 0.00 0.00 28 1017.0
20260904113604 94 292 0.0 0.0 0.00 0.00 0.00 27 1017.0
20260904112104 95 0 3.0 0.0 0.00 0.00 0.00 27 1017.2
20260904110604 95 0 2.0 0.0 0.00 0.00 0.00 27 1017.5
20260904105104 95 292 0.0 0.0 0.00 0.00 0.00 27 1017.7
20260904103605 95 247 0.0 0.0 0.00 0.00 0.00 27 1018.0
20260904102104 93 270 4.0 0.0 0.00 0.00 0.00 28 1018.2
20260904100604 93 270 2.0 0.0 0.00 0.00 0.00 27 1018.5
20260904095104 91 247 3.0 0.0 0.00 0.00 0.00 29 1018.5
20260904093604 90 0 0.0 0.0 0.00 0.00 0.00 31 1018.9
20260904092104 88 22 0.0 0.0 0.00 0.00 0.00 31 1019.0
20260904090604 88 0 2.0 0.0 0.00 0.00 0.00 32 1019.2
20260904085104 86 0 0.0 0.0 0.00 0.00 0.00 32 1019.2
20260904083604 86 270 0.0 0.0 0.00 0.00 0.00 32 1019.2
20260904082104 84 225 0.0 0.0 0.00 0.00 0.00 33 1019.5
20260904080604 79 202 4.0 0.0 0.00 0.00 0.00 35 1019.4
20260904075104 69 225 0.0 0.0 0.00 0.00 0.00 40 1019.5
20260904073604 68 202 0.0 0.0 0.00 0.00 0.00 40 1019.7
20260904072104 66 0 3.0 0.0 0.00 0.00 0.00 40 1019.5
20260904070604 65 315 0.0 0.0 0.00 0.00 0.00 40 1019.7
20260904065104 64 202 1.0 0.0 0.00 0.00 0.00 39 1019.9
20260904063604 63 292 0.0 0.0 0.00 0.00 0.00 39 1019.7
20260904062104 61 225 0.0 0.0 0.00 0.00 0.00 38 1019.7
20260904060604 60 270 0.0 0.0 0.00 0.00 0.00 38 1019.7
20260904055104 59 292 0.0 0.0 0.00 0.00 0.00 38 1019.7
20260904053604 58 292 0.0 0.0 0.00 0.00 0.00 38 1019.7
20260904052104 57 292 0.0 0.0 0.00 0.00 0.00 39 1019.7
20260904050604 57 292 0.0 0.0 0.00 0.00 0.00 40 1019.9
20260904045104 57 292 0.0 0.0 0.00 0.00 0.00 40 1019.9
20260904043604 58 247 0.0 0.0 0.00 0.00 0.00 42 1019.9
20260904042104 59 247 0.0 0.0 0.00 0.00 0.00 42 1020.0
20260904040604 60 292 0.0 0.0 0.00 0.00 0.00 42 1020.2
20260904035104 61 292 0.0 0.0 0.00 0.00 0.00 42 1020.2
20260904033604 62 292 0.0 0.0 0.00 0.00 0.00 41 1020.5
20260904032104 62 292 0.0 0.0 0.00 0.00 0.00 41 1020.4
20260904030604 62 292 0.0 0.0 0.00 0.00 0.00 41 1020.5
20260904025104 62 292 0.0 0.0 0.00 0.00 0.00 41 1020.5